Location: Rancho Del Sol Observatory
(38.7214°N, 120.6350°W)
Time: 16:57:37
(UTC-08:00)

Courier 1B - Pass Details

Date: 21 January 2020
Orbit: 962 x 1209 km, 28.3° (Epoch: 20 February)

Event Time Altitude Azimuth Distance (km) Brightness Sun altitude
Exits shadow 06:00:24 - 244° (WSW) 3,133 9.7 -14.8°
Reaches altitude 10° 06:00:34 10° 243° (WSW) 3,086 9.7 -14.8°
Maximum altitude 06:07:34 39° 178° (S) 1,730 8.9 -13.5°
Drops below altitude 10° 06:14:41 10° 113° (ESE) 3,139 11.6 -12.1°
Sets 06:17:45 0° 106° (ESE) 4,097 13.0 -11.6°
